Date,TemperatureHighF,TemperatureAvgF,TemperatureLowF,DewpointHighF,DewpointAvgF,DewpointLowF,HumidityHigh,HumidityAvg,HumidityLow,PressureMaxIn,PressureMinIn,WindSpeedMaxMPH,WindSpeedAvgMPH,GustSpeedMaxMPH,PrecipitationSumIn
2013-8-1,85,73,65,68,65,61,94,76,49,30.02,29.78,19,4,34,0.17
2013-8-2,81,72,65,69,65,60,95,80,64,29.95,29.79,11,2,16,0.00
2013-8-3,75,69,61,60,59,57,90,71,53,30.12,29.96,8,2,13,0.00
2013-8-4,78,69,59,67,60,55,87,74,60,30.13,29.95,17,3,21,0.00
2013-8-5,83,74,68,75,70,65,96,89,76,29.96,29.76,16,3,18,0.07
2013-8-6,88,76,64,76,71,63,98,85,63,29.87,29.69,14,2,43,1.59
2013-8-7,80,74,67,73,66,63,93,78,63,29.93,29.75,7,2,12,0.00
2013-8-8,77,69,62,67,64,60,93,82,68,29.97,29.88,6,1,11,0.00
2013-8-9,77,71,64,69,64,60,96,80,58,30.07,29.95,9,1,11,0.00
2013-8-10,82,72,58,65,61,57,96,71,51,30.14,30.00,9,3,15,0.00
2013-8-11,85,75,66,71,66,60,91,74,61,30.04,29.89,11,5,17,0.02
2013-8-12,82,73,65,70,65,61,97,78,52,30.01,29.89,8,2,12,0.00
2013-8-13,78,69,61,62,60,56,94,73,52,30.11,30.00,6,1,12,0.00
2013-8-14,73,65,56,62,58,54,93,80,61,30.14,30.02,7,2,15,0.06
2013-8-15,65,61,58,61,59,57,97,92,85,30.07,29.99,14,6,19,1.15
2013-8-16,71,65,59,62,59,58,95,82,66,30.14,30.06,15,4,18,0.01
2013-8-17,78,70,61,61,58,57,89,69,51,30.14,30.05,12,3,15,0.00
2013-8-18,78,68,61,63,59,56,82,73,55,30.09,29.98,10,2,14,0.00
2013-8-19,85,75,66,70,66,61,86,74,60,30.00,29.84,22,7,22,0.00
2013-8-20,88,79,71,74,70,67,86,74,60,29.87,29.80,20,8,22,0.00
2013-8-21,91,81,72,75,70,67,83,71,56,29.89,29.83,15,6,26,0.00
2013-8-22,81,74,68,71,69,66,95,83,70,30.02,29.87,10,2,27,0.03
2013-8-23,87,77,67,74,69,66,95,79,52,30.00,29.88,13,4,17,0.00
2013-8-24,90,82,75,75,72,68,82,71,60,29.97,29.89,19,8,27,0.00
2013-8-25,94,84,74,75,72,70,85,70,50,30.01,29.92,14,9,23,0.00
2013-8-26,94,84,74,75,72,70,85,67,52,29.97,29.82,17,8,25,0.00
2013-8-27,96,84,76,73,70,67,73,62,44,29.83,29.78,19,8,28,0.00
2013-8-28,96,83,73,73,67,64,74,60,37,29.89,29.81,15,5,18,0.00
2013-8-29,95,84,70,75,72,67,91,68,47,29.91,29.79,12,4,15,0.00
2013-8-30,92,82,74,79,73,68,88,74,57,29.80,29.73,10,3,15,0.00
2013-8-31,94,80,70,75,72,69,97,79,48,29.80,29.68,5,1,10,0.00